Location: Breitenfeld
(46.8500°N, 15.6333°E)
Time: 23:22:15
(UTC+00:00)

Cosmos 2341 Rocket - Pass Details

Date: 09 April 2020
Orbit: 968 x 1004 km, 82.9° (Epoch: 27 May)

Event Time Altitude Azimuth Distance (km) Brightness Sun altitude
Rises 18:58:20 0° 352° (N) 3,736 7.6 -13.7°
Reaches altitude 10° 19:00:53 10° 354° (N) 2,785 6.9 -14.0°
Maximum altitude 19:07:18 74° 80° (E) 1,047 4.0 -15.0°
Enters shadow 19:13:25 11° 165° (SSE) 2,679 5.9 -15.9°
